Cosmos 1980 - Orbit

View from above orbital plane
View from above orbital plane
View from above satellite
View from above satellite

Ground track
Ground track

The orbit data is extracted from the following two-line orbital elements,

1 19649U 88102A   13137.80644755 -.00000195  00000-0 -76792-4 0  4843
2 19649 071.0014 315.5738 0003868 035.5164 056.8595 14.14470476263675
Epoch (UTC): 17 May 2013 19:21:17
Eccentricity: 0.0003868
inclination: 71.0014°
perigee height: 841 km
apogee height: 847 km
right ascension of ascending node: 315.5738°
argument of perigee: 35.5164°
revolutions per day: 14.14470476
mean anomaly at epoch: 56.8595°
orbit number at epoch: 26367

The dashed part of the orbit path shows where the satellite is in the earth's shadow,  

Developed and maintained by Chris Peat, Heavens-Above GmbH. Please read the updated FAQ before sending e-mail. Imprint. DLR